Regional Weather Roundup
Issued by NWS Kansas City/Pleasant Hill, MO

Current Version | Previous Version | Text Only | Print | Product List | Glossary On
Versions: 1 2 3 4 5 6 7 8 9 10 11 12 13 14 15 16 17 18 19 20 21 22 23 24 25 26 27 28 29 30 31 32 33 34 35 36 37 38 39 40 41 42 43 44 45 46 47 48 49 50
000
ASUS43 KEAX 230411
RWREAX

WEATHER ROUNDUP FOR EASTERN KANSAS AND NORTHWEST MISSOURI
NATIONAL WEATHER SERVICE KANSAS CITY/PLEASANT HILL MO
1100 PM CDT FRI MAY 22 2015

KSZ040-057-103>105-MOZ028-029-037-043-230500-
...KANSAS CITY METROPOLITAN AREA...

CITY           SKY/WX    TMP DP  RH WIND       PRES   REMARKS
K.C. INTL      CLOUDY    60  51  72 SE7       30.21R
K.C. DOWNTOWN  CLOUDY    63  50  62 SE5       30.21R
LEES SUMMIT    CLOUDY    61  51  70 SE7       30.22R
OLATHE - IXD   CLOUDY    60  52  74 SE6       30.22R
OLATHE - OJC   CLOUDY    60  52  74 SE7       30.21R
LAWRENCE       CLOUDY    60  52  74 SE6       30.21R

$$

MOZ001>008-011>017-020>025-030>033-038>040-044>046-053-054-230500-
...NORTHERN AND CENTRAL MISSOURI...

CITY           SKY/WX    TMP DP  RH WIND       PRES   REMARKS
ST. JOSEPH     CLOUDY    60  50  69 CALM      30.22R
MOSBY          CLOUDY    61  52  72 CALM      30.22R
WARRENSBURG    CLOUDY    61  52  72 E6        30.22S
WHITEMAN AFB   CLOUDY    61  54  78 SE3       30.22R
CLINTON        CLOUDY    63  55  77 SE3       30.23S
SEDALIA        CLOUDY    63  54  72 SE7       30.24S
WARSAW         NOT AVBL
CHILLICOTHE      N/A     63  55  75 CALM      30.24R
KIRKSVILLE     CLOUDY    56  54  93 CALM      30.25R

$$

MOZ041-047>049-056>058-063>065-088>090-097-230500-
...EASTERN AND SOUTHERN MISSOURI...

CITY           SKY/WX    TMP DP  RH WIND       PRES   REMARKS
ST. LOUIS INTL CLOUDY    67  51  56 CALM      30.26S
SPIRIT OF STL  CLOUDY    61  58  90 CALM      30.25S
COLUMBIA       CLOUDY    63  53  70 E6        30.24F
JEFFERSON CITY CLOUDY    63  53  70 SE5       30.24S
ROLLA          CLOUDY    61  54  77 E3        30.24S
OSAGE BEACH    CLOUDY    63  52  67 CALM      30.24S
SPRINGFIELD    CLOUDY    61  49  64 SE12      30.22R
BRANSON        PTCLDY    57  48  72 CALM      30.25R
JOPLIN         CLOUDY    61  50  67 E8        30.21R
WEST PLAINS    CLOUDY    60  47  61 SE5       30.26R

$$

IAZ060-094-KSZ022-034>040-054-083-096-NEZ052-066-093-230500-
...KANSAS...SOUTHEAST NEBRASKA AND IOWA...

CITY           SKY/WX    TMP DP  RH WIND       PRES   REMARKS
TOPEKA         CLOUDY    61  51  70 E7        30.20R
MANHATTAN      CLOUDY    59  49  69 E5        30.18S
EMPORIA        CLOUDY    57  51  80 SE5       30.19R
CHANUTE        CLOUDY    60  52  74 E7        30.19R
WICHITA        CLOUDY    55  52  89 SE13      30.16R
OMAHA          CLOUDY    60  49  66 SE7       30.20R
LINCOLN        CLOUDY    60  46  59 SE9       30.19R
FALLS CITY     CLOUDY    57  50  77 SE5       30.20R
LAMONI           N/A     60  52  74 SE5       30.23R
DES MOINES     CLOUDY    64  46  52 CALM      30.22S

$$



USA.gov is the U.S. government's official web portal to all federal, state and local government web resources and services.